Location: Bradford+West+Gwillimbury,+ON,+Canadà
(44.1162°N, 79.5735°W)
Time: 16:58:23
(UTC-04:00)

STARLINK-2751 - Pass Details

Date: 22 June 2021
Orbit: 348 x 351 km, 53.0° (Epoch: 05 August)

Event Time Altitude Azimuth Distance (km) Brightness Sun altitude
Rises 13:50:39 0° 273° (W) 2,207 6.8 68.4°
Enters shadow 14:24:29 -57° 137° (SE) 11,063 9.8 65.5°
Exits shadow 15:00:46 -50° 339° (NNW) 10,273 9.6 60.8°
Reaches altitude 10° 04:47:19 10° 191° (S) 1,373 5.2 -7.5°
Maximum altitude 04:49:51 24° 135° (SE) 837 4.6 -7.2°
Drops below altitude 10° 04:52:24 10° 79° (E) 1,382 6.7 -6.9°
Sets 04:54:40 0° 65° (ENE) 2,236 8.5 -6.6°
